Estación de San Rafael
Ultimos registro cada 15 minutos 53
| N° | Estación | Fecha / Hora | Temperatura | Humedad | Lluvia | Velocidad | Dirección | Radiación | Presion |
| 53 | San Rafael | 05-05-2026 13:00 | 19,7 | 66 | 0 | 0 | 296 | 334,4 | 993,2 |
| 52 | San Rafael | 05-05-2026 12:45 | 20,2 | 67 | 0 | 0 | 296 | 350,6 | 993,2 |
| 51 | San Rafael | 05-05-2026 12:30 | 18,9 | 70,5 | 0 | 0 | 300 | 286,9 | 993,5 |
| 50 | San Rafael | 05-05-2026 12:15 | 19 | 70,2 | 0 | 0 | 300 | 266,9 | 993,4 |
| 49 | San Rafael | 05-05-2026 12:00 | 18,5 | 73 | 0 | 0 | 310 | 265,6 | 993,4 |
| 48 | San Rafael | 05-05-2026 11:45 | 18,6 | 74,8 | 0 | 0,5 | 330 | 301,9 | 993,5 |
| 47 | San Rafael | 05-05-2026 11:30 | 17,8 | 78,8 | 0 | 0 | 314 | 364,4 | 993,6 |
| 46 | San Rafael | 05-05-2026 11:15 | 17,2 | 80,4 | 0 | 0 | 316 | 275,6 | 993,6 |
| 45 | San Rafael | 05-05-2026 11:00 | 16,9 | 83,1 | 0 | 0 | 317 | 256,9 | 993,9 |
| 44 | San Rafael | 05-05-2026 10:45 | 16,2 | 85,4 | 0 | 0 | 309 | 245,6 | 994,2 |
| 43 | San Rafael | 05-05-2026 10:30 | 16 | 86,4 | 0 | 0 | 313 | 284,4 | 994,1 |
| 42 | San Rafael | 05-05-2026 10:15 | 15,7 | 88,9 | 0 | 0 | 326 | 356,9 | 994,2 |
| 41 | San Rafael | 05-05-2026 10:00 | 14,4 | 92,3 | 0 | 0,5 | 8 | 178,1 | 994,6 |
| 40 | San Rafael | 05-05-2026 09:45 | 13,9 | 96,2 | 0 | 0 | 25 | 204,4 | 994,4 |
| 39 | San Rafael | 05-05-2026 09:30 | 13 | 98,2 | 0 | 0,5 | 45 | 239,4 | 994,3 |
| 38 | San Rafael | 05-05-2026 09:15 | 12,4 | 99,1 | 0 | 0,5 | 27 | 148,1 | 994,8 |
| 37 | San Rafael | 05-05-2026 09:00 | 11,8 | 99,3 | 0 | 0 | 95 | 125,6 | 994,8 |
| 36 | San Rafael | 05-05-2026 08:45 | 11,6 | 99,4 | 0 | 0 | 139 | 76,9 | 995,1 |
| 35 | San Rafael | 05-05-2026 08:30 | 11,3 | 99,5 | 0 | 0,5 | 160 | 94,4 | 994,6 |
| 34 | San Rafael | 05-05-2026 08:15 | 11,1 | 99,6 | 0 | 0 | 175 | 59,4 | 995,3 |
| 33 | San Rafael | 05-05-2026 08:00 | 11 | 99,6 | 0 | 0 | 321 | 26,9 | 995,3 |
| 32 | San Rafael | 05-05-2026 07:45 | 10,9 | 99,6 | 0 | 0 | 354 | 15,6 | 994,8 |
| 31 | San Rafael | 05-05-2026 07:30 | 10,9 | 99,6 | 0 | 0 | 319 | 4,4 | 994,9 |
| 30 | San Rafael | 05-05-2026 07:15 | 10,9 | 99,5 | 0 | 1 | 46 | 0,6 | 995,8 |
| 29 | San Rafael | 05-05-2026 07:00 | 10,7 | 99,6 | 0 | 0 | 117 | 0,6 | 994,8 |
| 28 | San Rafael | 05-05-2026 06:45 | 10,7 | 99,6 | 0 | 0 | 216 | 0,6 | 995,9 |
| 27 | San Rafael | 05-05-2026 06:30 | 10,6 | 99,5 | 0 | 0 | 357 | 0,6 | 996,6 |
| 26 | San Rafael | 05-05-2026 06:15 | 10,6 | 99,5 | 0 | 0 | 3 | 0,6 | 994,9 |
| 25 | San Rafael | 05-05-2026 06:00 | 10,5 | 99,5 | 0 | 0,5 | 13 | 0,6 | 995,9 |
| 24 | San Rafael | 05-05-2026 05:45 | 10,2 | 99,6 | 0 | 0 | 306 | 0,6 | 995,8 |
| 23 | San Rafael | 05-05-2026 05:30 | 10,2 | 99,5 | 0 | 0 | 303 | 0,6 | 996,8 |
| 22 | San Rafael | 05-05-2026 05:15 | 10,2 | 99,6 | 0 | 0 | 323 | 0,6 | 996 |
| 21 | San Rafael | 05-05-2026 05:00 | 10,1 | 99,7 | 0 | 0 | 77 | 0,6 | 995,4 |
| 20 | San Rafael | 05-05-2026 04:45 | 9,8 | 99,6 | 0 | 0 | 84 | 0,6 | 996,1 |
| 19 | San Rafael | 05-05-2026 04:30 | 9,7 | 99,6 | 0 | 0 | 86 | 0,6 | 996,6 |
| 18 | San Rafael | 05-05-2026 04:15 | 9,7 | 99,6 | 0 | 0 | 86 | 0,6 | 996,5 |
| 17 | San Rafael | 05-05-2026 04:00 | 9,6 | 99,4 | 0 | 0 | 81 | 0,6 | 995,9 |
| 16 | San Rafael | 05-05-2026 03:45 | 9,7 | 99,4 | 0 | 0 | 81 | 0,6 | 995,7 |
| 15 | San Rafael | 05-05-2026 03:30 | 9,6 | 99,4 | 0 | 0 | 81 | 0,6 | 995,9 |
| 14 | San Rafael | 05-05-2026 03:15 | 9,4 | 99,4 | 0 | 0 | 81 | 0,6 | 995,7 |
| 13 | San Rafael | 05-05-2026 03:00 | 9,3 | 99,4 | 0 | 0 | 81 | 0,6 | 996 |
| 12 | San Rafael | 05-05-2026 02:45 | 9,3 | 99,2 | 0 | 0 | 81 | 0,6 | 996,3 |
| 11 | San Rafael | 05-05-2026 02:30 | 9,3 | 99,2 | 0 | 0 | 81 | 0,6 | 996,2 |
| 10 | San Rafael | 05-05-2026 02:15 | 9,2 | 99,2 | 0 | 0 | 81 | 0,6 | 996,4 |
| 9 | San Rafael | 05-05-2026 02:00 | 9,1 | 99 | 0 | 0 | 81 | 0,6 | 996,7 |
| 8 | San Rafael | 05-05-2026 01:45 | 9,1 | 98,9 | 0 | 0 | 81 | 0,6 | 996,5 |
| 7 | San Rafael | 05-05-2026 01:30 | 8,9 | 99 | 0 | 0 | 81 | 0,6 | 996,5 |
| 6 | San Rafael | 05-05-2026 01:15 | 8,7 | 98,8 | 0 | 0 | 81 | 0,6 | 996,5 |
| 5 | San Rafael | 05-05-2026 01:00 | 8,6 | 98,8 | 0 | 0 | 81 | 0,6 | 996,6 |
| 4 | San Rafael | 05-05-2026 00:45 | 8,7 | 98,6 | 0 | 0 | 81 | 0,6 | 996,7 |
| 3 | San Rafael | 05-05-2026 00:30 | 9,1 | 98,6 | 0 | 0 | 81 | 0,6 | 996,8 |
| 2 | San Rafael | 05-05-2026 00:15 | 9,4 | 98,6 | 0 | 0 | 81 | 0,6 | 996,9 |
| 1 | San Rafael | 05-05-2026 00:00 | 9,5 | 98,5 | 0 | 0 | 81 | 0,6 | 996,9 |